When you browse on this site, cookies collect data to enhance your experience and personalize the content and advertising you see.
Visit our Privacy Policy to learn more. By continuing to use the site, you agree to this use of cookies and data.

Tiempo cada hora Purranque

Hoy, 9 Agosto, Domingo

Tiempo Temperatura Precipitaciones Viento Presión Humedad
00:00 +9°C° 3.3 mm 1 mps 750 mmHg 99%
01:00 +9°C° 3.3 mm 1 mps 750 mmHg 99%
02:00 +9°C° 4 mm 1 mps 749 mmHg 99%
03:00 +9°C° 4 mm 1 mps 749 mmHg 99%
04:00 +9°C° 4 mm 1 mps 748 mmHg 99%
05:00 +9°C° 2.5 mm 1 mps 749 mmHg 98%
06:00 +8°C° 2.5 mm 1 mps 749 mmHg 98%
07:00 +8°C° 2.5 mm 1 mps 749 mmHg 98%
08:00 +7°C° 0.6 mm 2 mps 749 mmHg 98%
09:00 +7°C° 0.6 mm 2 mps 749 mmHg 97%
10:00 +7°C° 0.6 mm 2 mps 749 mmHg 97%
11:00 +7°C° 0 mm 2 mps 750 mmHg 94%
12:00 +7°C° 0 mm 2 mps 751 mmHg 91%
13:00 +8°C° 0 mm 2 mps 751 mmHg 88%
14:00 +7°C° 0 mm 2 mps 751 mmHg 85%
15:00 +7°C° 0 mm 2 mps 752 mmHg 82%
16:00 +7°C° 0 mm 2 mps 752 mmHg 78%
17:00 +6°C° 0 mm 2 mps 753 mmHg 82%
18:00 +6°C° 0 mm 1 mps 753 mmHg 86%
19:00 +5°C° 0 mm 1 mps 754 mmHg 90%
20:00 +5°C° 0.5 mm 1 mps 754 mmHg 92%
21:00 +4°C° 0.5 mm 2 mps 754 mmHg 94%
22:00 +4°C° 0.5 mm 2 mps 754 mmHg 96%
23:00 +4°C° 0.6 mm 2 mps 754 mmHg 96%

Mañana, 10 Agosto, Lunes

Tiempo Temperatura Precipitaciones Viento Presión Humedad
00:00 +3°C° 0.6 mm 2 mps 754 mmHg 96%
01:00 +3°C° 0.6 mm 2 mps 755 mmHg 95%
02:00 +3°C° 0.2 mm 2 mps 755 mmHg 94%
03:00 +2°C° 0.2 mm 2 mps 756 mmHg 93%
04:00 +2°C° 0.2 mm 2 mps 756 mmHg 92%
05:00 +2°C° 0.1 mm 2 mps 757 mmHg 93%
06:00 +2°C° 0.1 mm 2 mps 757 mmHg 93%
07:00 +1°C° 0.1 mm 2 mps 758 mmHg 93%
08:00 +3°C° 0.1 mm 2 mps 759 mmHg 89%
09:00 +4°C° 0.1 mm 2 mps 759 mmHg 84%
10:00 +5°C° 0.1 mm 3 mps 760 mmHg 79%
11:00 +5°C° 0.2 mm 3 mps 760 mmHg 75%
12:00 +7°C° 0.2 mm 2 mps 760 mmHg 72%
13:00 +7°C° 0.2 mm 2 mps 760 mmHg 68%
14:00 +7°C° 0.1 mm 2 mps 760 mmHg 70%
15:00 +7°C° 0.1 mm 2 mps 760 mmHg 72%
16:00 +7°C° 0.1 mm 2 mps 760 mmHg 73%
17:00 +6°C° 0 mm 1 mps 760 mmHg 80%
18:00 +5°C° 0 mm 1 mps 761 mmHg 87%
19:00 +3°C° 0 mm 1 mps 761 mmHg 93%
20:00 +3°C° 0 mm 1 mps 761 mmHg 94%
21:00 +2°C° 0 mm 0 mps 761 mmHg 95%
22:00 +1°C° 0 mm 0 mps 760 mmHg 96%
23:00 +3°C° 0 mm 1 mps 760 mmHg 96%

Pasado mañana, 11 Agosto, Martes

Tiempo Temperatura Precipitaciones Viento Presión Humedad
00:00 +3°C° 0 mm 1 mps 760 mmHg 96%
01:00 +3°C° 0 mm 1 mps 760 mmHg 96%
02:00 +3°C° 0 mm 1 mps 759 mmHg 96%
03:00 +3°C° 0 mm 1 mps 759 mmHg 96%
04:00 +3°C° 0 mm 1 mps 758 mmHg 96%
05:00 +3°C° 0 mm 1 mps 758 mmHg 95%
06:00 +3°C° 0 mm 1 mps 757 mmHg 95%
07:00 +3°C° 0 mm 1 mps 757 mmHg 95%
08:00 +4°C° 0.1 mm 1 mps 757 mmHg 91%
09:00 +6°C° 0.1 mm 1 mps 756 mmHg 88%
10:00 +7°C° 0.1 mm 1 mps 756 mmHg 85%
11:00 +7°C° 0.1 mm 1 mps 755 mmHg 84%
12:00 +8°C° 0.1 mm 1 mps 755 mmHg 83%
13:00 +9°C° 0.1 mm 1 mps 754 mmHg 81%
14:00 +9°C° 0.2 mm 1 mps 754 mmHg 85%
15:00 +8°C° 0.2 mm 1 mps 753 mmHg 89%
16:00 +8°C° 0.2 mm 1 mps 752 mmHg 93%
17:00 +7°C° 0.1 mm 1 mps 752 mmHg 94%
18:00 +7°C° 0.1 mm 1 mps 752 mmHg 95%
19:00 +6°C° 0.1 mm 1 mps 752 mmHg 96%
20:00 +6°C° 0.1 mm 1 mps 751 mmHg 97%
21:00 +6°C° 0.1 mm 1 mps 751 mmHg 97%
22:00 +5°C° 0.1 mm 1 mps 751 mmHg 97%
23:00 +5°C° 0.3 mm 1 mps 751 mmHg 97%

12 Agosto, Miércoles

Tiempo Temperatura Precipitaciones Viento Presión Humedad
00:00 +5°C° 0.3 mm 1 mps 751 mmHg 96%
01:00 +6°C° 0.3 mm 1 mps 751 mmHg 96%
02:00 +5°C° 0.1 mm 1 mps 751 mmHg 96%
03:00 +5°C° 0.1 mm 1 mps 751 mmHg 96%
04:00 +4°C° 0.1 mm 1 mps 751 mmHg 96%
05:00 +4°C° 0 mm 1 mps 751 mmHg 96%
06:00 +4°C° 0 mm 1 mps 751 mmHg 96%
07:00 +4°C° 0 mm 1 mps 752 mmHg 96%
08:00 +4°C° 0.1 mm 2 mps 752 mmHg 93%
09:00 +5°C° 0.1 mm 2 mps 753 mmHg 90%
10:00 +6°C° 0.1 mm 2 mps 753 mmHg 87%
11:00 +7°C° 0.2 mm 2 mps 753 mmHg 83%
12:00 +7°C° 0.2 mm 2 mps 754 mmHg 80%
13:00 +7°C° 0.2 mm 2 mps 754 mmHg 76%
14:00 +7°C° 0.2 mm 2 mps 754 mmHg 78%
15:00 +8°C° 0.2 mm 1 mps 754 mmHg 80%
16:00 +7°C° 0.2 mm 1 mps 754 mmHg 82%
17:00 +6°C° 0.1 mm 1 mps 754 mmHg 86%
18:00 +5°C° 0.1 mm 1 mps 754 mmHg 90%
19:00 +4°C° 0.1 mm 1 mps 755 mmHg 94%
20:00 +4°C° 0.2 mm 1 mps 755 mmHg 95%
21:00 +4°C° 0.2 mm 1 mps 755 mmHg 97%
22:00 +4°C° 0.2 mm 1 mps 755 mmHg 98%
23:00 +4°C° 0 mm 1 mps 754 mmHg 98%

13 Agosto, Jueves

Tiempo Temperatura Precipitaciones Viento Presión Humedad
00:00 +4°C° 0 mm 1 mps 754 mmHg 98%
01:00 +4°C° 0 mm 1 mps 754 mmHg 98%
02:00 +4°C° 0.2 mm 1 mps 754 mmHg 98%
03:00 +4°C° 0.2 mm 1 mps 753 mmHg 98%
04:00 +3°C° 0.2 mm 2 mps 753 mmHg 98%
05:00 +3°C° 0.1 mm 2 mps 752 mmHg 98%
06:00 +4°C° 0.1 mm 2 mps 752 mmHg 98%
07:00 +4°C° 0.1 mm 2 mps 751 mmHg 98%
08:00 +4°C° 0.7 mm 2 mps 751 mmHg 98%
09:00 +5°C° 0.7 mm 2 mps 750 mmHg 98%
10:00 +5°C° 0.7 mm 2 mps 750 mmHg 97%
11:00 +6°C° 1.2 mm 2 mps 749 mmHg 97%
12:00 +6°C° 1.2 mm 2 mps 748 mmHg 97%
13:00 +6°C° 1.2 mm 2 mps 748 mmHg 97%
14:00 +6°C° 1.3 mm 2 mps 747 mmHg 97%
15:00 +7°C° 1.3 mm 1 mps 747 mmHg 98%
16:00 +8°C° 1.3 mm 1 mps 747 mmHg 98%
17:00 +7°C° 0.5 mm 1 mps 747 mmHg 98%
18:00 +7°C° 0.5 mm 1 mps 747 mmHg 98%
19:00 +7°C° 0.5 mm 1 mps 747 mmHg 98%
20:00 +7°C° 0.3 mm 1 mps 748 mmHg 97%
21:00 +5°C° 0.3 mm 2 mps 748 mmHg 95%
22:00 +4°C° 0.3 mm 3 mps 749 mmHg 94%
23:00 +4°C° 0 mm 2 mps 749 mmHg 94%

14 Agosto, Viernes

Tiempo Temperatura Precipitaciones Viento Presión Humedad
00:00 +3°C° 0 mm 2 mps 750 mmHg 94%
01:00 +2°C° 0 mm 2 mps 750 mmHg 95%
02:00 +3°C° 0 mm 1 mps 751 mmHg 95%
03:00 +2°C° 0 mm 1 mps 752 mmHg 95%
04:00 +2°C° 0 mm 1 mps 752 mmHg 95%
05:00 +2°C° 0 mm 1 mps 753 mmHg 95%
06:00 +1°C° 0 mm 1 mps 753 mmHg 95%
07:00 +1°C° 0 mm 1 mps 754 mmHg 96%
08:00 +3°C° 0 mm 1 mps 754 mmHg 90%
09:00 +5°C° 0 mm 1 mps 755 mmHg 84%
10:00 +6°C° 0 mm 0 mps 755 mmHg 79%
11:00 +7°C° 0.1 mm 1 mps 755 mmHg 76%
12:00 +8°C° 0.1 mm 1 mps 754 mmHg 73%
13:00 +8°C° 0.1 mm 2 mps 754 mmHg 71%
14:00 +7°C° 0.2 mm 2 mps 753 mmHg 76%
15:00 +6°C° 0.2 mm 2 mps 753 mmHg 81%
16:00 +6°C° 0.2 mm 2 mps 752 mmHg 87%
17:00 +5°C° 0.8 mm 2 mps 752 mmHg 89%
18:00 +4°C° 0.8 mm 2 mps 752 mmHg 92%
19:00 +4°C° 0.8 mm 2 mps 753 mmHg 95%
20:00 +3°C° 0 mm 2 mps 753 mmHg 96%
21:00 +3°C° 0 mm 1 mps 754 mmHg 96%
22:00 +2°C° 0 mm 1 mps 754 mmHg 97%
23:00 +2°C° 0 mm 1 mps 755 mmHg 97%
Mostrar más